Location: Hengforden
(52.3167°N, 6.1333°E)
Time: 16:08:24
(UTC+00:00)

SeaSat 1 - Pass Details

Date: 14 June 2025
Orbit: 738 x 740 km, 108.0° (Epoch: 20 July)

Event Time Altitude Azimuth Distance (km) Brightness Sun altitude
Exits shadow 23:37:33 21° 166° (SSE) 1,608 3.6 -14.4°
Maximum altitude 23:40:44 63° 242° (WSW) 828 2.5 -14.4°
Drops below altitude 10° 23:45:37 10° 324° (NW) 2,259 5.7 -14.3°
Sets 23:47:55 0° 327° (NNW) 3,186 6.7 -14.3°
